Terug naar catalogus

SCATSAT 1

ActiefWeerSSO
NORAD 41790·PAYLOAD·🇮🇳 India

Gelanceerd Sep 26, 2016 vanaf Satish Dhawan Space Centre

Loading…

Volgende Passages (komende 24 uur)

TLE

VersSource: Space-Track

Epoch: Sep 13, 2026, 17:39 UTC

1 41790U 16059H   26256.73552014  .00000719  00000-0  10106-3 0  9998
2 41790  98.1107 321.3832 0053556 323.7297  36.0287 14.79701753114688

Volg SCATSAT 1 in realtime met AllMySat

Download on the App Store